SCP
0 0 1 1 1 1 2 2 2 2 3 3 3 4 4 5 4 4 4 4 3 2 1 1 0 0 0 0 0 0 0 0 0 0 0 0 0 0 0 0 0 0 0
0 0 1 1 1 1 2 2 2 2 2 3 3 4 5 5 4 4 4 4 3 2 1 1 0 0 0 0 0 0 0 0 0 0 0 0 0 0 0 0 0 0 0
0 0 1 1 1 1 1 2 2 2 2 3 3 4 5 6 5 4 3 3 3 2 1 1 0 0 0 0 0 0 0 0 0 0 0 0 0 0 0 0 0 0 0
0 0 1 1 1 1 1 2 2 2 2 2 3 4 5 6 5 4 4 3 2 2 1 1 0 0 0 0 0 0 0 0 0 0 0 0 0 0 0 0 0 0 0
0 0 1 1 1 1 1 2 2 2 2 2 3 4 5 6 6 5 4 3 2 1 1 1 0 0 0 0 0 0 0 0 0 0 0 0 0 0 0 0 0 0 0
0 0 0 1 1 1 1 2 2 2 2 3 3 4 5 6 6 5 4 3 2 1 1 1 0 0 0 0 0 0 0 0 0 0 0 0 0 0 0 0 0 0 0
0 0 0 1 1 1 1 2 2 2 2 2 3 4 5 6 6 4 4 3 2 1 1 1 0 0 0 0 0 0 0 0 0 0 0 0 0 0 0 0 0 0 0
0 0 0 0 1 1 1 2 2 2 2 2 2 3 4 5 4 4 3 3 2 1 1 1 0 0 0 0 0 0 0 0 0 0 0 0 0 0 0 0 0 0 0
0 0 0 0 1 1 1 1 2 2 2 2 2 2 3 3 3 3 3 3 2 1 1 1 0 0 0 0 0 0 0 0 0 0 0 0 0 0 0 0 0 0 0
0 0 0 0 1 1 1 1 1 1 1 1 1 1 1 2 2 2 2 2 2 1 1 1 1 0 0 0 0 0 0 0 0 0 0 0 0 0 0 0 0 0 0
0 0 0 0 1 1 1 1 1 1 1 1 1 1 1 2 2 1 1 1 1 1 1 1 1 0 0 0 0 0 0 0 0 0 0 0 0 0 0 0 0 0 0
0 0 0 0 0 1 1 1 1 1 1 1 1 1 1 1 1 1 1 1 1 1 1 1 1 0 0 0 0 0 0 0 0 0 0 0 0 0 0 0 0 0 0
0 0 0 0 0 0 1 1 1 1 1 1 1 1 1 1 1 1 1 1 1 1 1 1 1 1 0 0 0 0 0 0 0 0 0 0 0 0 0 0 0 0 0
0 0 0 0 0 0 0 1 1 1 1 1 1 1 1 1 1 1 1 1 1 1 1 1 1 1 0 0 0 0 0 0 0 0 0 0 0 0 0 0 0 0 0
0 0 0 0 0 0 0 0 1 1 1 1 1 1 1 1 1 2 2 1 1 1 1 1 1 1 1 0 0 0 0 0 0 0 0 0 0 0 0 0 0 0 0
0 0 0 0 0 0 0 0 1 1 1 1 1 1 1 1 2 2 2 2 2 1 1 1 1 1 1 0 0 0 0 0 0 0 0 0 0 0 0 0 0 0 0
0 0 0 0 0 0 0 0 1 1 1 1 1 1 1 2 2 2 2 2 2 2 1 1 1 1 0 0 0 0 0 0 0 0 0 0 0 0 0 0 0 0 0
0 0 0 0 0 0 0 0 0 1 1 1 1 1 2 3 3 2 2 2 2 2 2 1 1 1 0 0 0 0 0 0 0 0 0 0 0 0 0 0 0 0 0
0 0 0 0 0 0 0 0 0 1 1 1 1 1 2 3 3 2 2 2 2 2 2 2 1 1 1 0 0 0 0 0 0 0 0 0 0 0 0 0 0 0 0
0 0 0 0 0 0 0 0 0 1 1 1 1 1 2 2 3 2 2 2 2 1 2 2 2 1 1 0 0 0 0 0 0 0 0 0 0 0 0 0 0 0 0
0 0 0 0 0 0 0 0 0 1 1 1 1 1 2 2 2 2 2 2 1 1 2 2 2 2 1 1 0 0 0 0 0 0 0 0 0 0 0 0 0 0 0
0 0 0 0 0 0 0 0 0 1 1 1 1 1 2 2 2 2 2 1 1 1 2 2 2 2 1 1 0 0 0 0 0 0 0 0 0 0 0 0 0 0 0
0 0 0 0 0 0 0 0 0 0 1 1 1 1 2 2 2 2 2 2 1 1 2 2 2 2 2 1 0 0 0 0 0 0 0 0 0 0 0 0 0 0 0
0 0 0 0 0 0 0 0 0 0 0 1 1 1 2 2 2 2 2 2 2 1 2 2 3 2 2 1 0 0 0 0 0 0 0 0 0 0 0 0 0 0 0
0 0 0 0 0 0 0 0 0 0 0 0 1 1 1 1 1 2 2 2 1 1 2 2 3 2 1 1 0 0 0 0 0 0 0 0 0 0 0 0 0 0 0
0 0 0 0 0 0 0 0 0 0 0 0 1 1 1 1 2 2 2 2 1 1 1 2 2 2 1 0 0 0 0 0 0 0 0 0 0 0 0 0 0 0 0
Wind_Speed
14 13 14 14 13 14 15 15 15 14 13 10 10 11 11 11 11 11 15 16 15 15 13 10 12 12 10 11 12 10 10 8 7 6 5 4 4 4 4 4 4 5 5
13 12 13 13 13 14 15 15 15 15 15 12 11 10 11 10 11 11 14 16 16 16 13 14 12 12 11 12 12 11 8 7 7 6 5 4 5 5 5 5 5 5 4
11 11 12 12 12 13 15 14 15 16 16 15 10 10 9 8 9 12 12 15 16 16 15 15 14 13 12 11 13 13 12 9 8 7 5 4 4 4 5 6 5 6 5
10 9 9 10 12 12 12 14 15 15 16 16 14 16 13 12 11 12 12 14 16 16 16 16 15 14 12 13 13 13 10 11 9 7 4 2 1 3 4 5 5 6 6
9 8 8 8 9 9 9 11 13 14 15 16 17 18 15 12 10 12 14 14 14 16 16 16 15 14 12 14 14 13 12 10 9 8 6 4 3 4 3 3 4 4 5
8 7 6 6 6 6 7 9 12 13 15 17 17 19 19 16 14 15 15 13 11 13 17 16 15 15 13 14 14 13 14 11 11 9 8 6 5 5 4 3 4 3 3
7 6 5 5 6 5 6 8 12 13 15 16 17 19 19 18 18 16 16 15 12 12 16 16 16 15 14 14 14 13 14 14 13 11 9 8 6 4 4 3 3 3 2
8 7 6 5 6 6 6 8 10 12 14 15 16 17 18 14 13 16 14 15 13 13 16 17 16 16 16 15 14 12 13 12 13 12 11 8 7 5 5 4 3 3 3
10 9 8 6 5 6 7 7 10 11 13 15 15 16 17 16 15 16 15 13 13 13 17 18 17 17 16 16 15 12 14 12 12 12 11 9 7 6 5 5 5 4 4
12 11 9 7 6 5 6 7 8 11 12 14 13 13 16 16 15 15 16 15 16 15 17 18 18 17 16 16 15 13 13 13 12 9 11 10 7 6 6 5 5 5 4
13 12 10 9 7 6 5 5 7 8 10 11 12 14 15 16 16 15 16 15 15 16 17 17 17 17 17 16 15 14 14 15 13 11 11 11 10 7 6 6 5 5 5
13 11 10 9 8 6 5 5 6 7 9 10 11 13 14 15 15 15 15 15 16 16 17 17 17 17 17 16 16 16 15 15 14 13 12 11 8 9 7 6 7 6 6
13 12 11 10 9 7 6 6 7 7 7 9 10 12 13 15 16 16 15 15 15 15 16 17 17 17 17 17 16 15 15 15 14 13 13 12 11 10 8 8 6 5 4
13 12 12 11 10 8 7 7 6 6 6 8 10 11 13 14 15 15 15 15 15 15 15 16 17 16 16 16 16 15 14 13 12 11 11 11 11 11 9 7 7 6 5
13 13 13 12 11 10 8 8 7 6 6 7 9 11 12 12 13 13 14 14 14 14 14 15 15 15 14 14 15 14 13 13 12 10 10 9 9 9 8 6 7 6 5
13 14 13 13 12 11 10 9 8 7 6 7 9 9 10 11 12 13 14 14 14 14 14 14 14 14 11 14 16 14 13 12 12 10 9 8 9 9 9 8 7 7 6
13 14 13 13 12 11 10 9 9 7 6 7 8 9 10 11 12 12 13 14 14 14 14 13 14 14 14 16 18 16 12 12 11 11 10 7 7 9 8 9 8 6 5
14 14 13 13 12 11 10 9 8 7 6 7 8 9 10 11 11 12 13 14 12 12 13 13 13 12 13 18 18 17 12 10 10 10 10 10 9 9 10 8 7 5 4
13 13 12 13 12 11 10 9 8 7 6 7 8 8 10 11 11 12 12 12 11 11 11 11 12 12 13 18 19 17 10 8 9 8 8 9 10 13 14 11 9 8 6
12 12 12 12 11 10 9 8 8 7 7 7 7 8 9 11 12 12 12 11 10 10 10 9 10 12 12 17 20 18 9 9 8 7 7 10 11 16 16 11 10 9 7
14 13 12 11 10 9 9 8 8 7 7 6 7 8 9 10 11 11 10 10 10 10 10 9 9 10 11 17 21 19 10 10 10 8 7 8 15 16 15 11 8 10 9
14 13 12 11 10 9 8 9 9 8 7 6 6 7 8 8 8 10 10 10 11 11 10 9 9 7 9 12 17 19 15 13 10 9 8 9 17 16 15 10 12 15 11
13 12 12 12 10 8 8 9 9 7 7 6 6 6 7 8 9 11 11 10 10 10 9 9 8 8 7 10 16 18 17 15 9 8 13 15 18 16 11 14 16 12 7
12 11 11 11 11 10 9 9 8 7 6 6 6 6 7 7 8 8 9 9 10 10 10 10 9 9 8 9 10 11 12 14 12 11 15 18 16 11 12 12 8 5 5
12 11 10 11 11 10 10 8 7 6 6 6 5 5 6 7 7 6 6 8 8 10 11 10 10 11 11 12 16 13 11 10 11 12 10 8 8 7 7 6 5 5 5
11 11 11 11 11 10 10 8 7 6 6 5 5 5 5 6 6 6 5 5 7 11 11 11 11 9 12 19 20 19 19 20 21 14 10 9 8 8 8 7 6 5 5
Wind_Direction
252 244 240 235 229 223 218 211 206 201 190 180 179 177 178 178 177 178 178 177 176 177 177 172 173 176 178 179 178 172 169 166 164 164 166 176 193 206 203 210 212 208 210
258 245 238 232 226 221 218 211 206 201 195 186 183 180 177 180 177 176 180 180 178 179 180 178 177 179 180 181 179 175 171 165 179 180 172 179 189 202 210 214 221 222 212
268 252 241 232 224 220 217 212 205 201 198 188 182 176 169 173 178 180 182 184 182 182 182 183 181 181 183 183 182 181 181 174 182 194 193 191 190 170 186 207 216 217 219
272 261 250 240 226 224 220 213 205 201 197 190 188 181 180 182 186 182 181 182 185 185 185 185 186 184 186 185 186 187 188 179 182 189 215 239 177 189 173 188 206 214 225
280 267 253 248 234 227 225 214 205 203 197 194 193 188 188 186 183 181 180 182 185 188 188 186 188 188 188 189 187 187 190 189 191 189 184 189 198 230 216 196 194 207 214
298 279 266 259 245 231 231 220 205 206 200 196 198 195 190 184 183 185 183 183 184 188 190 188 190 190 190 191 190 190 194 195 197 196 194 193 194 200 210 222 211 214 199
325 308 294 275 261 242 232 223 208 207 202 198 201 199 194 188 188 189 188 185 185 188 191 189 192 192 193 192 190 191 196 199 200 202 204 207 214 203 210 226 226 228 210
341 331 318 299 275 254 237 230 216 211 203 202 203 200 196 192 192 194 191 189 189 190 189 191 194 194 192 191 192 193 197 201 203 207 208 209 211 206 207 214 220 230 227
343 336 326 317 299 273 251 240 228 218 208 205 204 201 198 195 193 195 194 192 192 188 189 191 193 195 193 192 191 197 197 200 205 206 208 210 209 209 212 215 219 228 242
341 332 328 320 310 296 271 249 240 225 212 208 206 203 200 197 195 195 195 194 192 187 188 191 193 194 193 193 194 197 199 200 204 204 206 209 207 205 207 211 216 226 240
337 331 326 319 308 311 299 272 250 233 218 212 209 207 202 198 197 199 198 195 193 189 189 190 191 192 194 193 194 198 196 201 201 200 206 208 205 202 203 204 208 214 219
335 331 329 326 320 315 308 291 269 238 223 216 212 210 204 198 196 199 199 197 194 191 189 188 191 192 193 194 196 198 197 199 201 200 201 206 201 204 202 201 206 209 211
335 337 336 334 331 323 311 293 280 252 230 221 215 211 206 201 200 199 198 195 192 191 189 188 191 193 193 194 197 198 197 199 200 198 199 201 199 203 201 201 202 203 203
335 337 337 335 332 324 315 301 285 272 243 228 219 213 209 205 202 200 197 194 190 189 188 189 192 192 192 193 194 194 196 196 197 197 197 198 198 201 196 196 198 192 190
334 335 333 332 332 327 319 311 295 285 260 234 224 217 212 208 203 198 194 191 189 188 186 188 190 190 190 192 191 189 190 190 190 191 195 196 194 192 187 185 186 180 179
327 327 327 327 327 326 318 312 302 291 273 244 230 220 213 206 201 197 192 188 187 185 183 187 188 189 189 182 181 183 185 186 185 183 183 179 176 170 164 161 159 163 172
321 320 320 320 319 318 315 307 300 290 272 254 237 223 212 205 199 195 191 187 186 183 184 185 187 189 187 176 175 175 180 181 181 178 175 169 167 165 160 146 136 131 124
317 315 315 316 316 314 312 306 298 286 270 254 241 225 210 205 197 191 190 187 184 183 184 184 185 186 182 172 171 166 173 173 175 176 174 170 168 165 158 149 140 129 116
309 309 309 311 312 311 310 305 296 285 267 252 242 229 211 203 196 192 189 185 182 182 181 181 181 181 175 167 164 161 167 162 164 166 168 167 163 155 149 145 137 127 110
309 311 311 311 311 311 309 302 293 284 271 259 248 234 213 202 195 193 189 183 178 175 171 173 176 175 172 165 162 161 162 157 154 151 155 159 156 153 151 152 148 144 140
310 312 312 310 308 309 305 297 290 283 280 270 253 237 215 201 193 188 184 177 169 165 165 163 165 168 166 162 163 163 163 159 154 152 154 155 151 149 150 150 149 147 141
310 312 311 308 307 304 298 292 287 287 285 270 251 235 214 195 185 180 176 172 165 161 160 156 154 158 159 159 164 163 160 154 152 153 151 148 147 145 144 141 136 135 132
307 309 307 305 304 300 294 289 290 289 279 264 248 227 207 189 182 179 172 169 165 162 161 159 157 153 149 149 152 155 151 145 143 141 139 138 139 138 135 134 135 135 131
306 307 305 302 301 300 295 289 290 286 267 253 239 214 196 184 180 177 173 171 168 165 163 161 158 152 150 149 149 149 143 136 130 128 128 128 127 123 125 130 130 126 129
302 302 299 299 299 299 297 294 290 280 260 242 225 202 186 175 171 167 171 173 172 170 165 164 162 161 163 162 155 152 150 148 141 133 128 131 133 134 133 128 126 124 124
300 299 297 296 297 297 294 293 290 274 253 232 208 187 174 167 158 147 130 113 138 143 150 156 160 160 153 149 148 145 143 141 141 135 140 144 146 148 147 143 136 131 131